Location: Newark
(13.6797°N, 8.5297°E)
Time: 16:32:44
(UTC+00:00)

Altair - Pass Details

Date: 01 February 2020
Orbit: 1502 x 1682 km, 47.2° (Epoch: 25 February)

Event Time Altitude Azimuth Distance (km) Brightness Sun altitude
Rises 15:21:44 0° 302° (WNW) 4,894 10.5 27.1°
Reaches altitude 10° 15:25:19 10° 293° (WNW) 3,886 10.3 26.3°
Maximum altitude 15:33:52 34° 233° (SW) 2,431 10.7 24.5°
Drops below altitude 10° 15:42:12 10° 172° (S) 3,761 9.9 22.6°
Sets 15:45:38 0° 163° (SSE) 4,718 10.2 21.9°
